Weather reports worldwide

Advertisment
Aberdeen/Dyce, United Kingdom (3091): temperature & dewpoint: 21.04.2017 00:00:00 - 27.04.2017 00:00:00 (BST)Aberdeen/Dyce, United Kingdom (3091): temperature -20cm & temperature -100cm: 21.04.2017 00:00:00 - 27.04.2017 00:00:00 (BST)Aberdeen/Dyce, United Kingdom (3091): wind speed & gusts: 21.04.2017 00:00:00 - 27.04.2017 00:00:00 (BST)Aberdeen/Dyce, United Kingdom (3091): wind direction: 21.04.2017 00:00:00 - 27.04.2017 00:00:00 (BST)Aberdeen/Dyce, United Kingdom (3091): reduced air pressure: 21.04.2017 00:00:00 - 27.04.2017 00:00:00 (BST)Aberdeen/Dyce, United Kingdom (3091): visibility: 21.04.2017 00:00:00 - 27.04.2017 00:00:00 (BST)Aberdeen/Dyce, United Kingdom (3091): sunshine duration: 21.04.2017 00:00:00 - 27.04.2017 00:00:00 (BST)Aberdeen/Dyce, United Kingdom (3091): precipitation: 21.04.2017 00:00:00 - 27.04.2017 00:00:00 (BST)
Date & Time tt [°C] td [°C] tt -20cm [°C] tt -100cm [°C] ff [km/h] ff [kn] fx [km/h] fx [kn] dd ppp [hPa] vv [km] sd [min] rr [mm]
27.04.2017 00:00:00 6,0 3,4 - - 16 9 - - W 1016,5 10 0 0,0
26.04.2017 23:00:00 5,3 3,1 - - 16 9 - - W 1017,1 10 0 0,2
26.04.2017 22:00:00 5,9 3,4 - - 15 8 - - WNW 1017,8 10 0 0,2
26.04.2017 21:00:00 6,5 3,4 - - 9 5 - - WNW 1018,3 10 0 0,0
26.04.2017 20:00:00 7,1 2,4 - - 16 9 - - NW 1018,5 7 0 0,0
26.04.2017 19:00:00 7,3 1,0 - - 9 5 - - W 1018,5 10 6 0,0
26.04.2017 18:00:00 7,5 0,6 - - 15 8 - - - 1018,9 10 6 0,0
26.04.2017 17:00:00 7,3 -0,4 - - 15 8 - - WNW 1019,4 10 0 0,0
26.04.2017 16:00:00 6,9 -0,5 - - 18 10 - - NW 1019,7 10 18 0,0
26.04.2017 15:00:00 5,7 0,3 - - 15 8 - - NW 1020,3 10 0 0,0
26.04.2017 14:00:00 6,9 0,0 - - 26 14 - - N 1020,2 10 24 0,0
26.04.2017 13:00:00 5,8 1,1 - - 24 13 - - NW 1020,2 10 18 0,0
26.04.2017 12:00:00 5,5 0,7 - - 24 13 - - NW 1020,3 10 36 0,0
26.04.2017 11:00:00 4,7 -0,1 - - 29 16 46 25 NNW 1020,3 10 18 0,0
26.04.2017 10:00:00 5,5 -2,6 7,7 8,2 26 14 - - NW 1020,1 10 30 0,0
26.04.2017 09:00:00 3,9 -1,1 - - 16 9 - - NW 1020,1 10 6 0,0
26.04.2017 08:00:00 2,5 0,5 - - 22 12 - - N 1020,1 10 12 0,0
26.04.2017 07:00:00 2,0 0,1 - - 21 11 - - NW 1019,8 10 6 0,0
26.04.2017 06:00:00 1,9 -0,7 - - 26 14 - - NW 1019,6 10 0 0,2
26.04.2017 05:00:00 2,4 -0,4 - - 22 12 - - NW 1019,5 10 0 0,0
26.04.2017 04:00:00 1,9 -0,1 - - 15 8 - - NNW 1019,7 10 0 0,0
26.04.2017 03:00:00 1,7 -0,2 - - 21 11 - - NW 1019,6 10 0 0,0
26.04.2017 02:00:00 2,5 -1,2 - - 22 12 - - NW 1019,6 10 0 0,0
26.04.2017 01:00:00 2,9 -0,6 - - 26 14 - - NW 1019,6 10 - 0,0
26.04.2017 00:00:00 3,3 0,2 - - 24 13 - - NW 1019,3 10 0 0,0
25.04.2017 23:00:00 3,4 -1,1 - - 24 13 - - NW 1019,2 10 0 0,0
25.04.2017 22:00:00 3,6 -0,4 - - 24 13 - - NNW 1019,0 10 0 0,0
25.04.2017 21:00:00 3,2 0,8 - - 24 13 - - NNW 1018,7 10 0 0,6
25.04.2017 20:00:00 2,7 1,0 - - 26 14 52 28 NNW 1018,6 2,9 6 1,0
25.04.2017 19:00:00 2,3 1,1 - - 26 14 52 28 N 1018,1 10 6 1,0
25.04.2017 18:00:00 4,8 1,5 - - 26 14 52 28 N 1017,2 8 6 0,0
25.04.2017 17:00:00 2,8 1,4 - - 42 23 67 36 NNW 1017,0 10 0 0,8
25.04.2017 16:00:00 1,7 0,8 - - 22 12 57 31 N 1017,0 5 12 2,0
25.04.2017 15:00:00 3,0 1,5 - - 35 19 61 33 NNW 1016,3 10 18 0,6
25.04.2017 14:00:00 5,6 2,4 - - 42 23 59 32 N 1015,4 10 18 0,2
25.04.2017 13:00:00 4,3 2,6 - - 28 15 59 32 N 1015,0 10 12 1,0
25.04.2017 12:00:00 6,1 2,1 - - 37 20 50 27 N 1014,1 10 24 0,0
25.04.2017 11:00:00 3,6 1,9 - - 35 19 57 31 NNW 1013,8 10 6 0,6
25.04.2017 10:00:00 3,5 2,1 8,2 8,2 35 19 54 29 NNW 1012,9 10 6 0,8
25.04.2017 09:00:00 4,2 2,2 - - 39 21 57 31 NNW 1012,3 9 12 0,4
25.04.2017 08:00:00 3,0 1,8 - - 29 16 57 31 NNW 1011,9 10 0 0,8
25.04.2017 07:00:00 2,0 1,0 - - 29 16 48 26 NW 1011,5 8 0 1,2
25.04.2017 06:00:00 1,6 0,2 - - 29 16 48 26 NW 1011,2 1,5 0 0,4
25.04.2017 05:00:00 2,1 0,4 - - 29 16 - - NW 1011,0 10 0 0,4
25.04.2017 04:00:00 2,3 0,5 - - 31 17 - - NW 1011,4 9 0 1,2
25.04.2017 03:00:00 2,0 0,8 - - 22 12 - - NW 1011,4 8 0 1,2
25.04.2017 02:00:00 1,0 0,5 - - 21 11 - - NW 1011,8 9 0 0,2
25.04.2017 01:00:00 1,3 -1,4 - - 22 12 - - WNW 1012,1 10 - 0,0
25.04.2017 00:00:00 1,1 -1,1 - - 15 8 - - WNW 1012,7 10 0 0,0
24.04.2017 23:00:00 1,0 -0,2 - - 16 9 - - NW 1012,6 10 0 0,0
24.04.2017 22:00:00 0,8 -0,1 - - 9 5 - - NW 1012,1 10 0 0,0
24.04.2017 21:00:00 1,3 0,0 - - 22 12 - - NNW 1011,8 3,5 0 0,0
24.04.2017 20:00:00 3,4 -1,7 - - 16 9 - - NNW 1010,8 10 42 0,0
24.04.2017 19:00:00 3,7 0,0 - - 29 16 - - NNW 1010,4 10 60 0,0
24.04.2017 18:00:00 1,9 0,9 - - 21 11 48 26 NNW 1011,6 10 6 0,6
24.04.2017 17:00:00 2,4 1,1 - - 34 18 72 39 NNW 1011,0 10 0 0,4
24.04.2017 16:00:00 2,5 0,9 - - 41 22 57 31 N 1010,1 6 0 0,4
24.04.2017 15:00:00 3,3 2,5 - - 15 8 - - NNW 1009,2 10 0 2,4
24.04.2017 14:00:00 1,8 0,3 - - 31 17 48 26 NW 1009,2 4,0 6 0,6
24.04.2017 13:00:00 3,3 1,0 - - 15 8 - - W 1008,8 8 6 0,4
24.04.2017 12:00:00 7,1 -2,7 - - 13 7 - - W 1008,8 10 30 0,0
24.04.2017 11:00:00 6,7 -2,9 - - 22 12 - - WNW 1009,8 10 48 0,0
24.04.2017 10:00:00 6,3 -0,6 8,7 8,0 22 12 48 26 WNW 1010,3 10 60 0,0
24.04.2017 09:00:00 4,5 1,3 - - 11 6 - - W 1011,3 10 24 0,0
24.04.2017 08:00:00 2,8 1,5 - - 15 8 - - NW 1012,3 10 0 0,6
24.04.2017 07:00:00 2,8 1,2 - - 16 9 - - NW 1012,6 10 0 0,2
24.04.2017 06:00:00 3,4 1,5 - - 11 6 - - WNW 1012,7 10 0 0,0
24.04.2017 05:00:00 3,6 1,1 - - 15 8 - - NW 1012,6 10 0 0,0
24.04.2017 04:00:00 3,6 0,4 - - 15 8 - - NW 1012,7 10 0 0,0
24.04.2017 03:00:00 4,5 0,7 - - 24 13 52 28 NW 1012,6 10 0 0,0
24.04.2017 02:00:00 5,8 1,3 - - 29 16 57 31 NW 1012,2 10 0 0,0
24.04.2017 01:00:00 6,8 2,0 - - 28 15 61 33 WNW 1011,9 10 - 0,2
24.04.2017 00:00:00 8,6 4,8 - - 28 15 - - WNW 1011,7 8 0 0,0
23.04.2017 23:00:00 9,1 2,4 - - 21 11 - - W 1011,6 10 0 0,0
23.04.2017 22:00:00 9,5 2,3 - - 22 12 - - WSW 1012,2 10 0 0,0
23.04.2017 21:00:00 10,0 2,0 - - 16 9 - - SW 1013,0 10 0 0,0
23.04.2017 20:00:00 10,7 1,8 - - 13 7 - - W 1013,9 10 0 0,0
23.04.2017 19:00:00 11,3 1,6 - - 18 10 - - W 1015,0 10 6 0,0
23.04.2017 18:00:00 11,9 1,2 - - 16 9 - - W 1015,8 10 6 0,0
23.04.2017 17:00:00 11,8 1,4 - - 16 9 - - WNW 1016,5 10 0 0,0
23.04.2017 16:00:00 11,6 1,4 - - 16 9 - - WNW 1017,6 10 0 0,0
23.04.2017 15:00:00 11,7 1,2 - - 16 9 - - WNW 1018,8 10 0 0,0
23.04.2017 14:00:00 11,5 0,8 - - 13 7 - - W 1019,8 10 24 0,0
23.04.2017 13:00:00 10,7 1,0 - - 16 9 - - W 1021,2 10 0 0,0
23.04.2017 12:00:00 9,7 1,2 - - 16 9 - - WNW 1022,2 10 0 0,0
23.04.2017 11:00:00 9,4 1,7 - - 16 9 - - W 1022,9 10 18 0,0
23.04.2017 10:00:00 8,3 1,5 8,7 8,0 15 8 - - WNW 1023,4 10 42 0,0
23.04.2017 09:00:00 7,4 1,7 - - 16 9 - - W 1023,9 10 60 0,0
23.04.2017 08:00:00 5,8 0,9 - - 11 6 - - W 1024,3 10 12 0,0
23.04.2017 07:00:00 4,7 1,0 - - 11 6 - - W 1024,7 10 0 0,0
23.04.2017 06:00:00 4,3 0,9 - - 15 8 - - WSW 1025,1 10 0 0,0
23.04.2017 05:00:00 4,4 1,0 - - 8 4 - - W 1025,6 10 0 0,0
23.04.2017 04:00:00 4,8 1,3 - - 9 5 - - W 1025,8 10 0 0,0
23.04.2017 03:00:00 3,9 1,6 - - 5 3 - - W 1026,3 10 0 0,2
23.04.2017 02:00:00 4,6 2,0 - - 13 7 - - W 1027,1 10 0 0,0
23.04.2017 01:00:00 4,7 1,9 - - 11 6 - - W 1027,3 10 - 0,0
23.04.2017 00:00:00 4,4 1,9 - - 9 5 - - W 1027,8 10 0 0,0
22.04.2017 23:00:00 4,3 1,9 - - 5 3 - - - 1028,0 10 0 0,0
22.04.2017 22:00:00 4,4 2,5 - - 5 3 - - - 1028,2 10 0 0,0
22.04.2017 21:00:00 4,5 2,1 - - 18 10 - - WNW 1028,0 10 0 0,0
22.04.2017 20:00:00 4,9 2,2 - - 21 11 - - NW 1027,9 10 6 0,0
22.04.2017 19:00:00 5,4 3,3 - - 13 7 48 26 WNW 1027,9 10 6 1,0
22.04.2017 18:00:00 7,0 1,3 - - 28 15 - - NNW 1027,8 10 0 0,0
22.04.2017 17:00:00 8,6 0,3 - - 16 9 - - WNW 1027,5 10 18 0,0
22.04.2017 16:00:00 8,2 -1,6 - - 24 13 - - NW 1027,9 50 24 0,0
22.04.2017 15:00:00 8,0 -2,5 - - 28 15 - - NNW 1028,3 40 42 0,0
22.04.2017 14:00:00 7,6 -2,0 - - 31 17 - - NNW 1028,6 45 24 0,0
22.04.2017 13:00:00 7,7 -1,6 - - 28 15 48 26 NNW 1028,7 35 36 0,0
22.04.2017 12:00:00 6,7 -1,3 - - 21 11 - - NNW 1028,8 10 18 0,0
22.04.2017 11:00:00 4,8 1,2 - - 18 10 46 25 NNW 1029,4 10 0 0,0
22.04.2017 10:00:00 5,6 0,7 8,9 8,0 18 10 - - NW 1029,2 10 0 0,0
22.04.2017 09:00:00 5,1 1,6 - - 18 10 - - WNW 1029,1 10 18 0,0
22.04.2017 08:00:00 5,1 1,5 - - 21 11 - - WNW 1029,0 10 6 0,0
22.04.2017 07:00:00 3,8 1,4 - - 21 11 - - WNW 1028,9 10 0 0,0
22.04.2017 06:00:00 3,5 1,5 - - 16 9 - - WNW 1028,8 10 0 0,4
22.04.2017 05:00:00 4,3 0,7 - - 16 9 - - NW 1028,6 10 0 0,0
22.04.2017 04:00:00 4,1 0,8 - - 16 9 48 26 WNW 1028,6 10 0 0,0
22.04.2017 03:00:00 4,5 0,9 - - 13 7 - - WNW 1028,8 10 0 0,0
22.04.2017 02:00:00 4,8 1,2 - - 15 8 - - WNW 1029,0 10 0 0,0
22.04.2017 01:00:00 3,9 1,4 - - 13 7 - - WNW 1029,1 10 - 0,2
22.04.2017 00:00:00 4,5 1,5 - - 26 14 - - WNW 1029,1 8 0 0,2
21.04.2017 23:00:00 5,0 2,1 - - 16 9 - - WNW 1028,9 10 0 0,2
21.04.2017 22:00:00 4,8 2,4 - - 11 6 - - NW 1028,9 10 0 0,0
21.04.2017 21:00:00 5,4 2,2 - - 24 13 46 25 WNW 1028,6 10 0 0,0
21.04.2017 20:00:00 5,7 2,6 - - 16 9 52 28 WNW 1027,9 10 6 0,4
21.04.2017 19:00:00 7,4 1,9 - - 26 14 - - NW 1027,6 10 6 0,0
21.04.2017 18:00:00 6,8 3,0 - - 31 17 50 27 NNW 1027,3 10 12 0,0
21.04.2017 17:00:00 9,4 1,4 - - 31 17 52 28 NW 1026,7 10 12 0,0
21.04.2017 16:00:00 10,5 0,4 - - 34 18 50 27 NNW 1026,1 10 48 0,0
21.04.2017 15:00:00 9,1 3,0 - - 37 20 57 31 NNW 1026,3 10 48 0,0
21.04.2017 14:00:00 10,0 3,3 - - 34 18 59 32 NW 1025,6 10 48 0,0
21.04.2017 13:00:00 9,3 4,7 - - 29 16 59 32 NW 1025,8 10 18 0,2
21.04.2017 12:00:00 9,6 4,3 - - 31 17 52 28 NW 1025,4 10 30 0,0
21.04.2017 11:00:00 8,3 5,0 - - 28 15 - - NW 1025,7 10 0 0,0
21.04.2017 10:00:00 8,1 6,6 8,9 7,9 22 12 - - NNW 1024,9 10 0 0,4
21.04.2017 09:00:00 8,2 7,1 - - 18 10 - - NNW 1024,4 7 0 0,6
21.04.2017 08:00:00 12,4 6,4 - - 13 7 - - W 1022,6 10 0 0,0
21.04.2017 07:00:00 11,8 6,1 - - 8 4 - - SW 1022,7 10 0 0,0
21.04.2017 06:00:00 11,7 6,3 - - 11 6 - - W 1023,1 10 0 0,0
21.04.2017 05:00:00 11,9 6,2 - - 13 7 - - W 1023,6 10 0 0,0
21.04.2017 04:00:00 11,8 5,7 - - 18 10 - - WSW 1024,4 10 0 0,0
21.04.2017 03:00:00 12,1 5,7 - - 13 7 - - W 1025,1 10 0 0,0
21.04.2017 02:00:00 10,4 5,4 - - 11 6 - - S 1025,7 10 0 0,0
21.04.2017 01:00:00 11,0 5,3 - - 11 6 - - SSW 1026,5 10 - 0,0
21.04.2017 00:00:00 11,3 5,5 - - 9 5 - - SW 1027,2 10 0 0,0

tt = temperature
td = dewpoint
tt -20cm = temperature -20cm
tt -100cm = temperature -100cm
ff = wind speed
fx = gusts
dd = wind direction
ppp = reduced air pressure
vv = visibility
sd = sunshine duration
rr = precipitation

Next stations